{"data":{"norad_id":58109,"intl_designator":"2023-161N","name":"STARLINK-30606","alt_names":[],"object_type":"PAYLOAD","status":"ACTIVE","operator":null,"country":"US","launch_date":"2023-10-21","launch_site_code":"AFWTR","launch_vehicle":null,"mission":null,"orbit_class":"UNKNOWN","rcs_meters":null,"size_class":null,"mass_kg":null,"dimensions":null,"purposes":["comms"],"wikipedia_slug":null,"has_3d_model":false,"image_url":null,"decayed_at":null,"tle_current":{"epoch":"2026-05-25T01:20:42.848736Z","epoch_age_seconds":66383,"freshness":"FRESH","line1":"1 58109U 23161N   26145.05605149  .00000451  00000+0  27340-4 0  9993","line2":"2 58109  53.1588 170.8152 0001101  96.3721 263.7405 15.30189754146113","mean_motion":15.30189754,"eccentricity":0.0001101,"inclination_deg":53.1588,"raan_deg":170.8152,"arg_perigee_deg":96.3721,"mean_anomaly_deg":263.7405,"bstar":2.734e-5,"rev_number":14611,"period_min":94.105975826577,"perigee_km":474.49110486806,"apogee_km":476.00021973029,"semimajor_km":6853.3826622992,"source":"CELESTRAK","updated_at":"2026-05-25T13:38:18.528530Z"}}}